GW0719 Weather Reports


Display with metric or nautical units.
time (UTC)temp
F
wind
direction
speed
MPH
gust
MPH
rain 1hr
in
rain 24hr
in
rain mn
in
humidity
%
barometer
mb
20260507212955 68 8 1.0 3.0 0.00 0.00 0.00 10 1012.6
20260507212451 67 348 0.0 2.0 0.00 0.00 0.00 10 1012.7
20260507211948 68 348 2.0 3.0 0.00 0.00 0.00 10 1012.6
20260507211444 66 13 0.0 0.0 0.00 0.00 0.00 10 1012.7
20260507210941 66 12 0.0 3.0 0.00 0.00 0.00 10 1012.9
20260507210438 66 13 0.0 0.0 0.00 0.00 0.00 10 1013.0
20260507205935 66 1 1.0 2.0 0.00 0.00 0.00 10 1013.0
20260507205432 67 39 0.0 2.0 0.00 0.00 0.00 10 1013.1
20260507204928 66 25 0.0 1.0 0.00 0.00 0.00 10 1013.1
20260507204425 67 5 0.0 0.0 0.00 0.00 0.00 10 1013.0
20260507203922 66 351 0.0 2.0 0.00 0.00 0.00 10 1013.1
20260507203420 66 339 0.0 1.0 0.00 0.00 0.00 10 1013.1
20260507202916 66 343 1.0 3.0 0.00 0.00 0.00 10 1013.0
20260507202413 66 6 0.0 0.0 0.00 0.00 0.00 10 1013.0
20260507201908 66 340 0.0 0.0 0.00 0.00 0.00 10 1012.9
20260507201404 66 330 0.0 3.0 0.00 0.00 0.00 10 1013.0
20260507200901 66 329 1.0 1.0 0.00 0.00 0.00 10 1013.0
20260507200357 65 345 0.0 3.0 0.00 0.00 0.00 10 1013.1
20260507195853 66 341 0.0 3.0 0.00 0.00 0.00 10 1013.0
20260507195350 66 356 0.0 0.0 0.00 0.00 0.00 10 1012.9
20260507194847 66 5 0.0 0.0 0.00 0.00 0.00 10 1013.1
20260507194343 66 1 0.0 1.0 0.00 0.00 0.00 10 1013.0
20260507193840 66 12 0.0 0.0 0.00 0.00 0.00 10 1012.9
20260507193337 66 341 0.0 0.0 0.00 0.00 0.00 10 1012.9
20260507192833 66 11 1.0 2.0 0.00 0.00 0.00 10 1013.0
20260507192330 66 326 0.0 3.0 0.00 0.00 0.00 10 1012.7
20260507191827 66 354 2.0 2.0 0.00 0.00 0.00 10 1012.6
20260507191323 65 352 0.0 1.0 0.00 0.00 0.00 10 1012.7
20260507190820 66 11 0.0 0.0 0.00 0.00 0.00 10 1012.9
20260507190318 65 32 0.0 0.0 0.00 0.00 0.00 10 1012.7
20260507185817 66 42 0.0 0.0 0.00 0.00 0.00 10 1012.7
20260507185313 66 332 0.0 1.0 0.00 0.00 0.00 10 1012.9
20260507184810 64 5 0.0 2.0 0.00 0.00 0.00 10 1013.0
20260507184309 65 7 0.0 0.0 0.00 0.00 0.00 10 1012.9
20260507183805 65 12 0.0 2.0 0.00 0.00 0.00 10 1013.0
20260507183302 66 20 0.0 3.0 0.00 0.00 0.00 10 1012.9
20260507182759 66 345 0.0 3.0 0.00 0.00 0.00 10 1013.1
20260507182254 65 12 2.0 3.0 0.00 0.00 0.00 10 1013.1
20260507181751 66 355 1.0 2.0 0.00 0.00 0.00 10 1013.0
20260507181247 66 22 0.0 1.0 0.00 0.00 0.00 10 1013.2
20260507180744 66 357 0.0 3.0 0.00 0.00 0.00 10 1013.0
20260507180241 66 1 0.0 2.0 0.00 0.00 0.00 10 1013.3
20260507175736 65 12 0.0 0.0 0.00 0.00 0.00 10 1013.3
20260507175234 66 3 0.0 0.0 0.00 0.00 0.00 10 1013.3
20260507174731 64 1 0.0 0.0 0.00 0.00 0.00 10 1013.3
20260507174229 64 7 0.0 3.0 0.00 0.00 0.00 10 1013.5
20260507173726 65 19 0.0 1.0 0.00 0.00 0.00 10 1013.5
20260507173223 64 6 0.0 0.0 0.00 0.00 0.00 10 1013.3
20260507172720 65 33 0.0 2.0 0.00 0.00 0.00 10 1013.5
20260507172217 64 350 0.0 1.0 0.00 0.00 0.00 10 1013.6
20260507171716 64 17 0.0 1.0 0.00 0.00 0.00 10 1013.6
20260507171214 64 40 0.0 3.0 0.00 0.00 0.00 10 1013.6
20260507170711 64 358 0.0 1.0 0.00 0.00 0.00 10 1013.6
20260507170208 64 15 0.0 1.0 0.00 0.00 0.00 10 1013.4
20260507165704 64 41 1.0 3.0 0.00 0.00 0.00 10 1013.6
20260507165200 64 38 1.0 2.0 0.00 0.00 0.00 10 1013.4
20260507164656 64 5 0.0 0.0 0.00 0.00 0.00 10 1013.5
20260507164153 64 10 0.0 2.0 0.00 0.00 0.00 10 1013.4
20260507163650 64 359 0.0 1.0 0.00 0.00 0.00 10 1013.5
20260507163148 63 6 0.0 2.0 0.00 0.00 0.00 10 1013.6
20260507162644 63 6 2.0 3.0 0.00 0.00 0.00 10 1013.6
20260507162140 64 10 0.0 2.0 0.00 0.00 0.00 10 1013.5
20260507161636 62 3 0.0 2.0 0.00 0.00 0.00 10 1013.6
20260507161133 63 36 0.0 3.0 0.00 0.00 0.00 10 1013.7
20260507160630 63 336 0.0 2.0 0.00 0.00 0.00 10 1013.5
20260507160126 63 17 0.0 2.0 0.00 0.00 0.00 10 1013.6
20260507155622 62 17 0.0 2.0 0.00 0.00 0.00 10 1013.7
20260507155119 63 11 2.0 3.0 0.00 0.00 0.00 10 1013.6
20260507154615 62 6 0.0 3.0 0.00 0.00 0.00 10 1013.4
20260507154113 62 23 0.0 1.0 0.00 0.00 0.00 10 1013.5
20260507153609 63 3 0.0 0.0 0.00 0.00 0.00 10 1013.4
20260507153106 62 346 0.0 1.0 0.00 0.00 0.00 10 1013.6
20260507152602 62 12 0.0 2.0 0.00 0.00 0.00 10 1013.4
20260507152058 61 352 1.0 2.0 0.00 0.00 0.00 10 1013.5
20260507151554 61 338 0.0 2.0 0.00 0.00 0.00 10 1013.6
20260507151051 60 342 0.0 1.0 0.00 0.00 0.00 10 1013.5
20260507150549 61 353 0.0 0.0 0.00 0.00 0.00 10 1013.5
20260507150045 59 346 0.0 1.0 0.00 0.00 0.00 10 1013.6
20260507145540 58 19 0.0 2.0 0.00 0.00 0.00 10 1013.6
20260507145038 58 29 0.0 2.0 0.00 0.00 0.00 10 1013.5
20260507144534 57 336 1.0 3.0 0.00 0.00 0.00 10 1013.9
20260507144032 57 340 0.0 1.0 0.00 0.00 0.00 10 1013.5
20260507143529 56 346 1.0 2.0 0.00 0.00 0.00 10 1013.4
20260507143027 56 339 0.0 0.0 0.00 0.00 0.00 10 1013.6
20260507142522 55 349 0.0 0.0 0.00 0.00 0.00 10 1013.5
20260507142019 55 348 0.0 0.0 0.00 0.00 0.00 10 1013.5
20260507141515 55 4 0.0 0.0 0.00 0.00 0.00 10 1013.4
20260507141012 55 19 0.0 0.0 0.00 0.00 0.00 10 1013.6
20260507140509 53 355 0.0 2.0 0.00 0.00 0.00 10 1013.9
20260507140007 52 36 0.0 0.0 0.00 0.00 0.00 10 1013.7
20260507135503 52 43 0.0 1.0 0.00 0.00 0.00 10 1013.7
20260507135000 52 57 0.0 0.0 0.00 0.00 0.00 10 1013.7
20260507134456 53 88 0.0 0.0 0.00 0.00 0.00 10 1013.6
20260507133952 53 84 0.0 0.0 0.00 0.00 0.00 10 1013.6
20260507133448 54 72 0.0 1.0 0.00 0.00 0.00 10 1013.5
20260507132947 54 25 0.0 0.0 0.00 0.00 0.00 10 1013.6
20260507132443 53 15 0.0 0.0 0.00 0.00 0.00 10 1013.5
20260507131939 53 19 0.0 0.0 0.00 0.00 0.00 10 1013.3
20260507131436 52 350 0.0 0.0 0.00 0.00 0.00 10 1013.2
20260507130934 52 14 0.0 0.0 0.00 0.00 0.00 10 1013.4
20260507130431 51 20 0.0 0.0 0.00 0.00 0.00 10 1013.2
20260507125929 46 19 0.0 0.0 0.00 0.00 0.00 10 1013.0
20260507125427 45 351 0.0 0.0 0.00 0.00 0.00 10 1013.0
20260507124924 43 10 0.0 0.0 0.00 0.00 0.00 10 1013.1
20260507124420 43 330 0.0 0.0 0.00 0.00 0.00 10 1013.2
20260507123919 42 323 0.0 0.0 0.00 0.00 0.00 10 1012.9
20260507123418 42 11 0.0 0.0 0.00 0.00 0.00 10 1012.9
20260507122912 42 7 0.0 0.0 0.00 0.00 0.00 10 1012.9
20260507122407 42 339 0.0 0.0 0.00 0.00 0.00 10 1012.9
20260507121904 42 36 0.0 0.0 0.00 0.00 0.00 10 1012.6
20260507121359 42 354 0.0 0.0 0.00 0.00 0.00 10 1012.9
20260507120856 42 357 0.0 0.0 0.00 0.00 0.00 10 1012.7
20260507120352 43 322 0.0 0.0 0.00 0.00 0.00 10 1012.6
20260507115848 43 328 0.0 0.0 0.00 0.00 0.00 10 1012.5
20260507115344 43 320 0.0 0.0 0.00 0.00 0.00 10 1012.2
20260507114840 42 340 0.0 0.0 0.00 0.00 0.00 10 1012.6
20260507114337 41 315 0.0 0.0 0.00 0.00 0.00 10 1012.2
20260507113835 41 300 0.0 0.0 0.00 0.00 0.00 10 1012.3
20260507113332 41 315 0.0 0.0 0.00 0.00 0.00 10 1012.5
20260507112829 42 341 0.0 0.0 0.00 0.00 0.00 10 1012.4
20260507112326 42 337 0.0 0.0 0.00 0.00 0.00 10 1012.3
20260507111824 42 342 0.0 0.0 0.00 0.00 0.00 10 1012.2
20260507111320 41 35 0.0 0.0 0.00 0.00 0.00 10 1012.5
20260507110816 41 302 0.0 0.0 0.00 0.00 0.00 10 1012.2
20260507110313 41 308 0.0 0.0 0.00 0.00 0.00 10 1012.3
20260507105810 41 328 0.0 0.0 0.00 0.00 0.00 10 1012.0
20260507105307 41 321 0.0 0.0 0.00 0.00 0.00 10 1012.3
20260507104803 41 308 0.0 0.0 0.00 0.00 0.00 10 1012.0
20260507104259 41 337 0.0 1.0 0.00 0.00 0.00 10 1012.3
20260507103756 41 295 0.0 0.0 0.00 0.00 0.00 10 1012.1
20260507103252 40 339 0.0 0.0 0.00 0.00 0.00 10 1012.1
20260507102749 39 8 0.0 0.0 0.00 0.00 0.00 10 1012.0
20260507102245 40 324 0.0 0.0 0.00 0.00 0.00 10 1012.0
20260507101742 40 17 0.0 0.0 0.00 0.00 0.00 10 1011.9
20260507101237 40 20 0.0 0.0 0.00 0.00 0.00 10 1011.9
20260507100734 41 4 0.0 0.0 0.00 0.00 0.00 10 1011.9
20260507100233 41 41 0.0 0.0 0.00 0.00 0.00 10 1011.9
20260507095730 42 347 0.0 0.0 0.00 0.00 0.00 10 1011.6
20260507095226 41 37 0.0 0.0 0.00 0.00 0.00 10 1012.0
20260507094723 41 344 0.0 0.0 0.00 0.00 0.00 10 1012.0
20260507094220 40 40 0.0 0.0 0.00 0.00 0.00 10 1012.0
20260507093717 40 39 0.0 0.0 0.00 0.00 0.00 10 1012.0
20260507093216 41 35 0.0 0.0 0.00 0.00 0.00 10 1011.5
20260507092713 40 321 0.0 0.0 0.00 0.00 0.00 10 1011.6
20260507092209 40 6 0.0 0.0 0.00 0.00 0.00 10 1011.9
20260507091706 41 354 0.0 0.0 0.00 0.00 0.00 10 1011.9
20260507091202 41 283 0.0 0.0 0.00 0.00 0.00 10 1011.4
20260507090657 41 304 0.0 0.0 0.00 0.00 0.00 10 1011.6
20260507090155 40 1 0.0 0.0 0.00 0.00 0.00 10 1011.4
20260507085652 40 41 0.0 0.0 0.00 0.00 0.00 10 1011.5
20260507085148 41 22 0.0 0.0 0.00 0.00 0.00 10 1011.3
20260507084645 42 32 0.0 0.0 0.00 0.00 0.00 10 1011.5
20260507084142 42 15 0.0 0.0 0.00 0.00 0.00 10 1011.1
20260507083639 42 40 0.0 0.0 0.00 0.00 0.00 10 1011.0
20260507083136 42 49 0.0 0.0 0.00 0.00 0.00 10 1011.3
20260507082631 43 53 0.0 0.0 0.00 0.00 0.00 10 1011.4
20260507082128 44 56 0.0 0.0 0.00 0.00 0.00 10 1011.2
20260507081625 44 55 0.0 0.0 0.00 0.00 0.00 10 1011.3
20260507081121 44 51 0.0 0.0 0.00 0.00 0.00 10 1011.3
20260507080618 44 55 0.0 0.0 0.00 0.00 0.00 10 1011.4
20260507080115 44 45 0.0 0.0 0.00 0.00 0.00 10 1011.6
20260507075614 43 49 0.0 0.0 0.00 0.00 0.00 10 1011.4
20260507075111 43 41 0.0 0.0 0.00 0.00 0.00 10 1011.2
20260507074608 42 50 0.0 0.0 0.00 0.00 0.00 10 1011.3
20260507074106 42 31 0.0 0.0 0.00 0.00 0.00 10 1011.2
20260507073602 42 25 0.0 0.0 0.00 0.00 0.00 10 1011.3
20260507073058 41 18 0.0 0.0 0.00 0.00 0.00 10 1011.2
20260507072556 40 39 0.0 0.0 0.00 0.00 0.00 10 1011.2
20260507072053 40 19 0.0 0.0 0.00 0.00 0.00 10 1011.1
20260507071551 40 48 0.0 0.0 0.00 0.00 0.00 10 1010.9
20260507071047 40 322 0.0 0.0 0.00 0.00 0.00 10 1010.8
20260507070544 40 315 0.0 0.0 0.00 0.00 0.00 10 1010.8
20260507070041 42 336 0.0 0.0 0.00 0.00 0.00 10 1010.8
20260507065537 43 1 0.0 0.0 0.00 0.00 0.00 10 1010.7
20260507065035 44 318 0.0 0.0 0.00 0.00 0.00 10 1010.4
20260507064532 46 60 0.0 0.0 0.00 0.00 0.00 10 1010.7
20260507064031 47 69 0.0 0.0 0.00 0.00 0.00 10 1010.7
20260507063527 48 77 0.0 0.0 0.00 0.00 0.00 10 1010.5
20260507063025 48 97 0.0 0.0 0.00 0.00 0.00 10 1010.7
20260507062521 49 95 0.0 0.0 0.00 0.00 0.00 10 1010.4
20260507062019 49 94 0.0 0.0 0.00 0.00 0.00 10 1010.3
20260507061517 50 82 0.0 0.0 0.00 0.00 0.00 10 1010.4
20260507061015 49 107 0.0 0.0 0.00 0.00 0.00 10 1010.4
20260507060512 50 95 0.0 0.0 0.00 0.00 0.00 10 1010.7
20260507060009 51 102 0.0 0.0 0.00 0.00 0.00 10 1010.7
20260507055503 51 98 0.0 1.0 0.00 0.00 0.00 10 1010.8
20260507055000 53 102 0.0 1.0 0.00 0.00 0.00 10 1010.8
20260507054456 53 90 0.0 0.0 0.00 0.00 0.00 10 1010.9
20260507053954 53 103 0.0 0.0 0.00 0.00 0.00 10 1011.1
20260507053451 53 89 0.0 0.0 0.00 0.00 0.00 10 1011.1
20260507052949 53 88 1.0 3.0 0.00 0.00 0.00 10 1010.3
20260507052447 54 88 0.0 1.0 0.00 0.00 0.00 10 1010.3
20260507051943 54 77 1.0 2.0 0.00 0.00 0.00 10 1010.1
20260507051441 54 97 0.0 0.0 0.00 0.00 0.00 10 1009.8
20260507050938 53 95 0.0 1.0 0.00 0.00 0.00 10 1009.9
20260507050434 54 71 0.0 1.0 0.00 0.00 0.00 10 1010.0
20260507045932 55 101 0.0 0.0 0.00 0.00 0.00 10 1009.9
20260507045428 55 84 0.0 1.0 0.00 0.00 0.00 10 1010.0
20260507044925 55 96 0.0 0.0 0.00 0.00 0.00 10 1009.9
20260507044422 53 93 0.0 0.0 0.00 0.00 0.00 10 1009.9
20260507043918 54 114 0.0 0.0 0.00 0.00 0.00 10 1009.8
20260507043414 54 104 0.0 0.0 0.00 0.00 0.00 10 1009.6
20260507042911 54 118 0.0 0.0 0.00 0.00 0.00 10 1009.6
20260507042407 54 115 0.0 0.0 0.00 0.00 0.00 10 1009.8
20260507041903 55 117 0.0 0.0 0.00 0.00 0.00 10 1009.6
20260507041400 56 102 0.0 0.0 0.00 0.00 0.00 10 1009.7
20260507040858 56 133 0.0 0.0 0.00 0.00 0.00 10 1009.8
20260507040353 58 135 0.0 0.0 0.00 0.00 0.00 10 1009.4
20260507035849 55 153 0.0 0.0 0.00 0.00 0.00 10 1009.2
20260507035345 55 154 0.0 0.0 0.00 0.00 0.00 10 1009.6
20260507034843 56 141 0.0 0.0 0.00 0.00 0.00 10 1009.2
20260507034339 58 189 0.0 0.0 0.00 0.00 0.00 10 1009.6
20260507033837 59 151 0.0 0.0 0.00 0.00 0.00 10 1009.4
20260507033335 60 172 0.0 0.0 0.00 0.00 0.00 10 1009.2
20260507032832 58 144 0.0 0.0 0.00 0.00 0.00 10 1009.6
20260507032328 56 272 0.0 1.0 0.00 0.00 0.00 10 1009.7
20260507031825 58 133 0.0 0.0 0.00 0.00 0.00 10 1009.3
20260507031322 58 117 0.0 0.0 0.00 0.00 0.00 10 1009.2
20260507030818 59 128 0.0 0.0 0.00 0.00 0.00 10 1009.0
20260507030316 58 124 0.0 0.0 0.00 0.00 0.00 10 1009.2
20260507025812 58 127 0.0 0.0 0.00 0.00 0.00 10 1009.1
20260507025310 59 152 0.0 0.0 0.00 0.00 0.00 10 1008.9
20260507024808 60 85 0.0 0.0 0.00 0.00 0.00 10 1008.7
20260507024304 59 105 0.0 0.0 0.00 0.00 0.00 10 1008.8
20260507023800 59 82 0.0 0.0 0.00 0.00 0.00 10 1008.8
20260507023257 60 64 0.0 0.0 0.00 0.00 0.00 10 1008.7
20260507022754 61 63 0.0 0.0 0.00 0.00 0.00 10 1008.6
20260507022251 63 67 0.0 0.0 0.00 0.00 0.00 10 1008.3
20260507021747 63 63 0.0 0.0 0.00 0.00 0.00 10 1008.5
20260507021242 63 61 0.0 0.0 0.00 0.00 0.00 10 1008.7
20260507020741 64 57 0.0 0.0 0.00 0.00 0.00 10 1008.7
20260507020237 65 69 0.0 0.0 0.00 0.00 0.00 10 1008.5
20260507015734 66 66 0.0 0.0 0.00 0.00 0.00 10 1008.3
20260507015232 66 57 0.0 0.0 0.00 0.00 0.00 10 1008.7
20260507014728 67 63 0.0 0.0 0.00 0.00 0.00 10 1008.8
20260507014225 67 56 0.0 0.0 0.00 0.00 0.00 10 1008.9
20260507013721 68 39 0.0 0.0 0.00 0.00 0.00 10 1008.7
20260507013219 68 27 0.0 0.0 0.00 0.00 0.00 10 1008.9
20260507012716 68 40 0.0 0.0 0.00 0.00 0.00 10 1008.6
20260507012211 68 42 0.0 0.0 0.00 0.00 0.00 10 1008.8
20260507011709 69 37 0.0 0.0 0.00 0.00 0.00 10 1008.8
20260507011206 69 9 0.0 0.0 0.00 0.00 0.00 10 1008.7
20260507010705 70 26 0.0 0.0 0.00 0.00 0.00 10 1008.7
20260507010201 70 341 0.0 0.0 0.00 0.00 0.00 10 1008.8
20260507005659 69 340 0.0 0.0 0.00 0.00 0.00 10 1008.8
20260507005155 70 337 0.0 0.0 0.00 0.00 0.00 10 1008.8
20260507004652 70 334 0.0 1.0 0.00 0.00 0.00 10 1008.9
20260507004149 70 9 0.0 1.0 0.00 0.00 0.00 10 1008.9
20260507003646 70 339 0.0 0.0 0.00 0.00 0.00 10 1008.9
20260507003145 70 338 1.0 3.0 0.00 0.00 0.00 10 1009.0
20260507002642 70 345 0.0 1.0 0.00 0.00 0.00 10 1009.0
20260507002138 70 6 1.0 2.0 0.00 0.00 0.00 10 1008.9
20260507001635 70 8 0.0 0.0 0.00 0.00 0.00 10 1009.0
20260507001133 70 42 0.0 0.0 0.00 0.00 0.00 10 1009.0
20260507000629 69 27 0.0 0.0 0.00 0.00 0.00 10 1009.1
20260507000124 69 4 0.0 0.0 0.00 0.00 0.00 10 1009.3
20260506235622 68 32 0.0 0.0 0.00 0.00 0.00 10 1009.1
20260506235122 68 36 0.0 0.0 0.00 0.00 0.00 10 1009.0
20260506234619 68 15 0.0 0.0 0.00 0.00 0.00 10 1009.2
20260506234116 68 36 0.0 0.0 0.00 0.00 0.00 10 1009.0
20260506233613 68 46 0.0 0.0 0.00 0.00 0.00 10 1009.0
20260506233110 68 348 0.0 0.0 0.00 0.00 0.00 10 1009.3
20260506232606 69 2 0.0 0.0 0.00 0.00 0.00 10 1009.2
20260506232102 69 20 0.0 0.0 0.00 0.00 0.00 10 1009.2
20260506231559 68 76 0.0 0.0 0.00 0.00 0.00 10 1009.2
20260506231058 69 52 0.0 1.0 0.00 0.00 0.00 10 1009.3
20260506230554 69 31 0.0 0.0 0.00 0.00 0.00 10 1009.3
20260506230051 68 15 0.0 0.0 0.00 0.00 0.00 10 1009.4
20260506225548 68 327 0.0 0.0 0.00 0.00 0.00 10 1009.7
20260506225044 68 48 0.0 0.0 0.00 0.00 0.00 10 1009.8
20260506224541 68 343 0.0 0.0 0.00 0.00 0.00 10 1009.6
20260506224038 68 26 0.0 0.0 0.00 0.00 0.00 10 1009.8
20260506223533 68 19 0.0 0.0 0.00 0.00 0.00 10 1010.0
20260506223030 68 13 0.0 0.0 0.00 0.00 0.00 10 1010.0
20260506222527 68 34 0.0 0.0 0.00 0.00 0.00 10 1010.2
20260506222023 68 10 1.0 1.0 0.00 0.00 0.00 10 1010.2
20260506221521 68 321 0.0 0.0 0.00 0.00 0.00 10 1010.2
20260506221019 68 342 0.0 0.0 0.00 0.00 0.00 10 1010.7
20260506220514 67 345 0.0 0.0 0.00 0.00 0.00 10 1010.8
20260506220010 67 34 0.0 2.0 0.00 0.00 0.00 10 1010.8
20260506215508 67 19 0.0 2.0 0.00 0.00 0.00 10 1010.5
20260506215003 67 93 0.0 0.0 0.00 0.00 0.00 10 1010.4
20260506214500 66 293 0.0 1.0 0.00 0.00 0.00 10 1010.5
20260506213957 65 311 0.0 2.0 0.00 0.00 0.00 10 1010.8
20260506213455 66 327 0.0 1.0 0.00 0.00 0.00 10 1010.9